User: anonymous   Login
Location: Santa Barbara
(34.4500°N, 119.7700°W)
Time: 05:27:48
(UTC-07:00)
Language:

Cosmos 1626 Rocket - Orbit

View from above orbital plane
View from above orbital plane
View from above satellite
View from above satellite

Ground track
Ground track

The orbit data is extracted from the following two-line orbital elements,

1 15495U 85009B   18173.67282052 +.00000070 +00000-0 +54787-5 0  9991
2 15495 082.5235 200.4304 0020010 183.3850 176.7233 14.83813135783818
Epoch (UTC): 22 June 2018 16:08:51
Eccentricity: 0.0020010
inclination: 82.5235°
perigee height: 603 km
apogee height: 631 km
right ascension of ascending node: 200.4304°
argument of perigee: 183.3850°
revolutions per day: 14.83813135
mean anomaly at epoch: 176.7233°
orbit number at epoch: 78381

The dashed part of the orbit path shows where the satellite is in the earth's shadow,  

DLR